JBU38 MROC-KFLL

Flight info

Callsign JBU38
Flight time 2h 58m
Altitude 35000
Route NANJO3R RADON DCT BLU DCT PZA DCT SELEK/N0460F360 UL345 ELIBU/N0456F370 DCT IKBIX BHHIA3
Aircraft A320/M-SDE3FGHIRWY/LB1

Departure

Time 2026-04-30 14:40
Airport Juan Santamaría International Airport (MROC)

Arrival

Time 2026-04-30 17:39
Airport Fort Lauderdale Hollywood International Airport (KFLL)
Time Latitude Longitude Altitude Speed Heading
2026-04-30 14:01 9.99760 -84.20317 3034 ft 0 kts 339°
2026-04-30 14:29 9.99735 -84.20306 3035 ft 4 kts 330°
2026-04-30 14:29 9.99706 -84.20284 3034 ft 1 kts 316°
2026-04-30 14:30 9.99704 -84.20282 3034 ft 0 kts 316°
2026-04-30 14:32 9.99690 -84.20344 3035 ft 11 kts 247°
2026-04-30 14:32 9.99655 -84.20439 3034 ft 18 kts 250°
2026-04-30 14:32 9.99600 -84.20584 3036 ft 26 kts 249°
2026-04-30 14:33 9.99534 -84.20760 3034 ft 27 kts 249°
2026-04-30 14:33 9.99433 -84.21028 3017 ft 16 kts 249°
2026-04-30 14:33 9.99387 -84.21158 3005 ft 22 kts 250°
2026-04-30 14:34 9.99334 -84.21301 2998 ft 22 kts 248°
2026-04-30 14:34 9.99300 -84.21380 2992 ft 9 kts 245°
2026-04-30 14:34 9.99273 -84.21459 2986 ft 14 kts 251°
2026-04-30 14:34 9.99231 -84.21572 2977 ft 20 kts 246°
2026-04-30 14:35 9.99179 -84.21708 2970 ft 13 kts 249°
2026-04-30 14:35 9.99128 -84.21844 2959 ft 18 kts 249°
2026-04-30 14:35 9.99091 -84.21965 2946 ft 14 kts 275°
2026-04-30 14:36 9.99104 -84.22066 2950 ft 14 kts 259°
2026-04-30 14:36 9.99074 -84.22149 2941 ft 4 kts 250°
2026-04-30 14:36 9.99052 -84.22196 2938 ft 9 kts 228°
2026-04-30 14:36 9.99016 -84.22205 2948 ft 0 kts 170°
2026-04-30 14:38 9.99014 -84.22205 2948 ft 1 kts 169°
2026-04-30 14:38 9.99013 -84.22205 2948 ft 2 kts 169°
2026-04-30 14:39 9.98967 -84.22190 2949 ft 9 kts 161°
2026-04-30 14:39 9.98922 -84.22173 2943 ft 4 kts 159°
2026-04-30 14:39 9.98917 -84.22168 2937 ft 2 kts 132°
2026-04-30 14:40 9.99051 -84.21787 2971 ft 81 kts 69°
2026-04-30 14:40 9.99317 -84.21081 3009 ft 131 kts 70°
2026-04-30 14:40 9.99682 -84.20099 3248 ft 154 kts 70°
2026-04-30 14:40 10.00170 -84.19215 4075 ft 145 kts 41°
2026-04-30 14:41 10.01095 -84.18885 4720 ft 144 kts
2026-04-30 14:41 10.02107 -84.19215 4858 ft 164 kts 330°
2026-04-30 14:41 10.03076 -84.19883 5043 ft 174 kts 332°
2026-04-30 14:41 10.04165 -84.20563 5175 ft 194 kts 332°
2026-04-30 14:42 10.05296 -84.21446 5313 ft 220 kts 310°
2026-04-30 14:42 10.05978 -84.22871 5726 ft 229 kts 292°
2026-04-30 14:42 10.06525 -84.24393 6184 ft 229 kts 292°
2026-04-30 14:42 10.07083 -84.25916 6642 ft 232 kts 294°
2026-04-30 14:43 10.07654 -84.27462 7095 ft 235 kts 292°
2026-04-30 14:43 10.08221 -84.28994 7574 ft 236 kts 292°
2026-04-30 14:43 10.08803 -84.30560 8035 ft 237 kts 293°
2026-04-30 14:43 10.09591 -84.31946 8814 ft 222 kts 311°
2026-04-30 14:44 10.10723 -84.32984 9310 ft 222 kts 329°
2026-04-30 14:44 10.12190 -84.33624 9441 ft 239 kts 349°
2026-04-30 14:44 10.13898 -84.33719 9566 ft 256 kts
2026-04-30 14:44 10.15663 -84.33159 9749 ft 278 kts 27°
2026-04-30 14:45 10.17484 -84.32340 10086 ft 294 kts 26°
2026-04-30 14:45 10.19420 -84.31473 10241 ft 315 kts 26°
2026-04-30 14:45 10.21497 -84.30548 10363 ft 337 kts 25°
2026-04-30 14:45 10.23710 -84.29573 10508 ft 355 kts 25°
2026-04-30 14:46 10.26006 -84.28569 10914 ft 362 kts 25°
2026-04-30 14:46 10.28332 -84.27553 11428 ft 366 kts 25°
2026-04-30 14:46 10.30659 -84.26479 11935 ft 369 kts 27°
2026-04-30 14:46 10.32200 -84.25730 12270 ft 371 kts 28°
2026-04-30 14:47 10.35319 -84.24168 12930 ft 376 kts 28°
2026-04-30 14:47 10.37674 -84.22976 13402 ft 380 kts 27°
2026-04-30 14:47 10.40057 -84.21776 13855 ft 384 kts 27°
2026-04-30 14:47 10.42474 -84.20570 14270 ft 388 kts 26°
2026-04-30 14:48 10.44914 -84.19365 14669 ft 392 kts 27°
2026-04-30 14:48 10.46544 -84.18563 14927 ft 395 kts 26°
2026-04-30 14:48 10.49024 -84.17344 15337 ft 398 kts 27°
2026-04-30 14:48 10.51526 -84.16112 15742 ft 401 kts 26°
2026-04-30 14:49 10.54046 -84.14868 16129 ft 405 kts 27°
2026-04-30 14:49 10.57425 -84.13202 16678 ft 409 kts 27°
2026-04-30 14:49 10.60000 -84.11930 17052 ft 414 kts 26°
2026-04-30 14:49 10.62595 -84.10648 17495 ft 416 kts 26°
2026-04-30 14:50 10.66985 -84.08480 18181 ft 421 kts 26°
2026-04-30 14:50 10.69656 -84.07217 18524 ft 424 kts 21°
2026-04-30 14:51 10.75387 -84.05690 19277 ft 429 kts 12°
2026-04-30 14:51 10.78264 -84.05039 19665 ft 430 kts 12°
2026-04-30 14:51 10.84137 -84.03707 20457 ft 434 kts 11°
2026-04-30 14:52 10.87092 -84.03032 20819 ft 436 kts 12°
2026-04-30 14:52 10.93035 -84.01660 21547 ft 440 kts 11°
2026-04-30 14:52 10.96026 -84.00971 21895 ft 442 kts 11°
2026-04-30 14:53 11.02046 -83.99592 22579 ft 445 kts 11°
2026-04-30 14:53 11.05077 -83.98904 22910 ft 447 kts 11°
2026-04-30 14:54 11.11175 -83.97522 23548 ft 451 kts 11°
2026-04-30 14:54 11.17332 -83.96117 24040 ft 455 kts 11°
2026-04-30 14:55 11.23541 -83.94686 24518 ft 460 kts 11°
2026-04-30 14:55 11.26668 -83.93966 24772 ft 462 kts 11°
2026-04-30 14:55 11.32963 -83.92522 25253 ft 466 kts 11°
2026-04-30 14:56 11.39320 -83.91071 25720 ft 470 kts 11°
2026-04-30 14:56 11.45745 -83.89605 26160 ft 476 kts 11°
2026-04-30 14:57 11.48981 -83.88863 26404 ft 478 kts 11°
2026-04-30 14:57 11.55493 -83.87370 26940 ft 480 kts 11°
2026-04-30 14:58 11.62014 -83.85862 27589 ft 480 kts 11°
2026-04-30 14:58 11.65271 -83.85108 27924 ft 480 kts 11°
2026-04-30 14:58 11.71792 -83.83611 28596 ft 481 kts 10°
2026-04-30 14:59 11.78277 -83.82129 29287 ft 481 kts 10°
2026-04-30 15:00 11.88084 -83.79880 30299 ft 482 kts 10°
2026-04-30 15:00 11.94606 -83.78377 30998 ft 479 kts 10°
2026-04-30 15:01 12.01090 -83.76896 31796 ft 475 kts
2026-04-30 15:01 12.04324 -83.76238 32191 ft 473 kts
2026-04-30 15:01 12.10774 -83.75079 32993 ft 469 kts
2026-04-30 15:02 12.13982 -83.74524 33393 ft 467 kts
2026-04-30 15:02 12.17183 -83.73961 33791 ft 465 kts
2026-04-30 15:03 12.26703 -83.72211 34716 ft 462 kts
2026-04-30 15:03 12.33056 -83.71014 34911 ft 469 kts
2026-04-30 15:04 12.49357 -83.67966 34897 ft 478 kts
2026-04-30 15:06 12.65735 -83.64909 34909 ft 479 kts
2026-04-30 15:07 12.78803 -83.62469 34919 ft 479 kts
2026-04-30 15:08 12.91912 -83.60010 34922 ft 479 kts
2026-04-30 15:09 13.08284 -83.56949 34927 ft 478 kts
2026-04-30 15:10 13.21351 -83.54496 34924 ft 477 kts
2026-04-30 15:11 13.40928 -83.50819 34904 ft 477 kts
2026-04-30 15:13 13.57178 -83.47764 34918 ft 475 kts
2026-04-30 15:14 13.79925 -83.43480 34921 ft 475 kts
2026-04-30 15:17 14.09141 -83.38027 34916 ft 473 kts
2026-04-30 15:19 14.35120 -83.34059 34933 ft 471 kts
2026-04-30 17:39 26.06877 -80.14254 16 ft 0 kts